BREEZE-KM R/B, 40064

Orbit data source: Space-Track

BREEZE-KM R/B, 40064 is space debris in LEO originally from a launch on Thu, 03 Jul 2014 UTC launched from the Plesetsk Missile And Space Complex (PKMTR). Debris objects in space refer to the collection of defunct objects orbiting the Earth. Examples of debris include non-operational satellites, rocket bodies, and fragments generated from explosions, collisions, or faulty payload assembly.

Loading next visibility...
Identifier
40064, 2014-036D
Orbit
LEO
Country
Flag of CISCIS
Related business
Manufacturer
Khrunichev
Mission
Spacecraft
Bus & Motor
BRIZ, S5.92
Mass
2,370 kg wet, 2,370 kg dry
Launch date (UTC)
2014-07-03 (11 years ago)
Launch vehicle
Unknown
Launch site
Plesetsk Missile And Space Complex (PKMTR)
Object type
Payload
Rocket body
Debris
Shape & HBR
Hex Cyl + 1 Rod, 2.0 m
Radar Cross Section
10.190 m², Large (>1 m²)

Expand to show TLE details & history
Last TLE update: 4 hours ago

TLE from 4 hours ago
0 BREEZE-KM R/B
1 40064U 14036D   25343.65153855  .00000007  00000-0 -16441-4 0  9991
2 40064  82.5126 230.4890 0229893 192.5911 166.9390 12.81755160535099
Epoch: 2025-12-09T15:38Z
TLE epoch observation values (Epoch: 2025-12-09T15:38:12.930Z)
Latitude
-0°
Longitude
-82.69803°
Altitude
1,510.13 km
Speed
7.03 km/s
True Right ascension
15h 21m 57s
True Declination
0° 00' 00"
Sunlit
Object was in daylight at epoch
Visualization orbit readout
Latitude
Unknown
Longitude
Unknown
Altitude
Unknown
Speed
Unknown
Apparent Right ascension
Unknown
Apparent Declination
Unknown
Sunlit
N/A
Visualization observer readout
Local Sidereal Time
17:40:42
Azimuth
Unknown
Elevation
Unknown
Doppler factor
Unknown
Orbital elements
Apogee altitude
1,508.959 km
Perigee altitude
1,154.471 km
Semi-major axis
7,709.852 km
Eccentricity
0.02299
Inclination
82.5126°
RAAN
230.489°
Arg. of periapsis
192.5911°
True anomaly
167.5181°
Mean anomaly
166.939°
Eccentric anomaly
167.23015°
Mean motion
3.20608 °/min
Orbital period
112.29 mins
BSTAR
-0.000016441
Loading maneuver chart data...
Computing Atmospheric mass density...
Loading historical data...
Loading historical data...
Loading historical data...
Loading historical data...
Loading historical data...
Loading historical data...
Loading historical data...
Other satellites on launch #36 in the year 2014 (2014-07-03 UTC)

Documentation

Showing up to 5 results
|